Terminal Aerodrome Forecast
Issued by NWS Miami, FL

Home | Current Version | Previous Version | Text Only | Print | Product List | Glossary On
Versions: 1 2 3 4 5 6 7 8 9 10 11 12 13 14 15 16 17 18 19 20 21 22 23 24 25 26 27 28 29 30 31 32 33 34 35 36 37 38 39 40 41 42 43 44 45 46 47 48 49 50
000
FTUS42 KMFL 230539
TAFPBI
TAF
KPBI 230539Z 2306/2406 10020G30KT P6SM VCSH SCT018 BKN025 BKN035
      TEMPO 2306/2309 -SHRA BKN015 BKN025
     FM231200 12019G28KT P6SM VCSH SCT018 BKN035
     FM231500 14017G27KT P6SM VCSH SCT020 BKN035 OVC050=

USA.gov is the U.S. government's official web portal to all federal, state and local government web resources and services.